| time (UTC) | temp F | wind direction | speed MPH | gust MPH | rain 1hr in | rain 24hr in | rain mn in | humidity % | barometer mb |
| 20260510224541 | 61 | 292 | 0.0 | 4.0 | 0.00 | 0.30 | 0.00 | 71 | 1014.6 |
| 20260510223050 | 62 | 292 | 0.0 | 4.0 | 0.00 | 0.30 | 0.00 | 71 | 1014.4 |
| 20260510221539 | 62 | 292 | 0.0 | 3.0 | 0.00 | 0.30 | 0.00 | 71 | 1014.4 |
| 20260510220040 | 62 | 292 | 1.0 | 4.0 | 0.00 | 0.30 | 0.00 | 71 | 1014.4 |
| 20260510214543 | 62 | 292 | 1.0 | 5.0 | 0.00 | 0.35 | 0.00 | 77 | 1014.2 |
| 20260510213043 | 62 | 292 | 0.0 | 6.0 | 0.00 | 0.35 | 0.00 | 82 | 1014.1 |
| 20260510211541 | 62 | 292 | 2.0 | 5.0 | 0.00 | 0.35 | 0.00 | 80 | 1014.1 |
| 20260510210040 | 63 | 292 | 0.0 | 5.0 | 0.00 | 0.35 | 0.00 | 78 | 1014.1 |
| 20260510204538 | 64 | 292 | 0.0 | 2.0 | 0.00 | 0.50 | 0.00 | 76 | 1013.8 |
| 20260510203034 | 64 | 292 | 1.0 | 3.0 | 0.00 | 0.50 | 0.00 | 74 | 1013.7 |
| 20260510201542 | 65 | 292 | 2.0 | 5.0 | 0.00 | 0.50 | 0.00 | 73 | 1013.5 |
| 20260510200042 | 66 | 292 | 1.0 | 3.0 | 0.00 | 0.50 | 0.00 | 71 | 1013.6 |
| 20260510194542 | 66 | 292 | 1.0 | 4.0 | 0.00 | 0.67 | 0.00 | 70 | 1013.7 |
| 20260510193040 | 67 | 292 | 0.0 | 3.0 | 0.00 | 0.67 | 0.00 | 69 | 1013.7 |
| 20260510191534 | 67 | 292 | 0.0 | 6.0 | 0.00 | 0.67 | 0.00 | 69 | 1013.7 |
| 20260510190051 | 67 | 292 | 2.0 | 6.0 | 0.00 | 0.67 | 0.00 | 66 | 1013.9 |
| 20260510184541 | 67 | 292 | 3.0 | 8.0 | 0.00 | 0.67 | 0.00 | 68 | 1013.9 |
| 20260510183041 | 68 | 292 | 2.0 | 7.0 | 0.00 | 0.67 | 0.00 | 68 | 1013.7 |
| 20260510181542 | 67 | 292 | 2.0 | 6.0 | 0.00 | 0.67 | 0.00 | 71 | 1014.1 |
| 20260510180040 | 65 | 292 | 1.0 | 4.0 | 0.00 | 0.67 | 0.00 | 75 | 1014.0 |
| 20260510174543 | 65 | 292 | 2.0 | 6.0 | 0.00 | 0.67 | 0.00 | 77 | 1014.2 |
| 20260510173041 | 64 | 292 | 2.0 | 4.0 | 0.00 | 0.67 | 0.00 | 77 | 1014.0 |
| 20260510171546 | 63 | 292 | 1.0 | 3.0 | 0.00 | 0.67 | 0.00 | 79 | 1014.2 |
| 20260510170041 | 63 | 292 | 1.0 | 4.0 | 0.00 | 0.67 | 0.00 | 79 | 1014.3 |
| 20260510164543 | 63 | 292 | 1.0 | 4.0 | 0.00 | 0.67 | 0.00 | 80 | 1014.4 |
| 20260510163040 | 63 | 292 | 0.0 | 6.0 | 0.00 | 0.67 | 0.00 | 81 | 1014.4 |
| 20260510161534 | 62 | 292 | 1.0 | 3.0 | 0.00 | 0.67 | 0.00 | 82 | 1014.4 |
| 20260510160059 | 61 | 292 | 3.0 | 5.0 | 0.00 | 0.67 | 0.00 | 82 | 1014.6 |
| 20260510154541 | 60 | 292 | 1.0 | 4.0 | 0.00 | 0.67 | 0.00 | 85 | 1014.7 |
| 20260510153043 | 58 | 0 | 1.0 | 5.0 | 0.00 | 0.67 | 0.00 | 87 | 1014.6 |
| 20260510151541 | 57 | 292 | 1.0 | 3.0 | 0.00 | 0.67 | 0.00 | 88 | 1014.7 |
| 20260510150037 | 56 | 292 | 0.0 | 3.0 | 0.00 | 0.67 | 0.00 | 89 | 1014.7 |
| 20260510144542 | 55 | 0 | 0.0 | 3.0 | 0.00 | 0.67 | 0.00 | 90 | 1014.6 |
| 20260510143042 | 54 | 292 | 0.0 | 2.0 | 0.00 | 0.67 | 0.00 | 92 | 1014.6 |
| 20260510141541 | 53 | 0 | 0.0 | 2.0 | 0.00 | 0.67 | 0.00 | 93 | 1014.3 |
| 20260510140041 | 53 | 292 | 0.0 | 1.0 | 0.00 | 0.67 | 0.00 | 94 | 1014.4 |
| 20260510134540 | 53 | 292 | 0.0 | 2.0 | 0.00 | 0.67 | 0.00 | 94 | 1014.4 |
| 20260510133040 | 53 | 0 | 0.0 | 2.0 | 0.00 | 0.67 | 0.00 | 94 | 1014.4 |
| 20260510131542 | 52 | 292 | 0.0 | 1.0 | 0.00 | 0.67 | 0.00 | 94 | 1014.4 |
| 20260510130042 | 52 | 0 | 0.0 | 2.0 | 0.00 | 0.67 | 0.00 | 95 | 1014.3 |
| 20260510124543 | 51 | 292 | 0.0 | 2.0 | 0.00 | 0.67 | 0.00 | 95 | 1014.2 |
| 20260510123040 | 51 | 0 | 0.0 | 1.0 | 0.00 | 0.67 | 0.00 | 95 | 1014.0 |
| 20260510121537 | 50 | 0 | 0.0 | 1.0 | 0.00 | 0.67 | 0.00 | 94 | 1014.0 |
| 20260510120038 | 50 | 292 | 0.0 | 1.0 | 0.00 | 0.67 | 0.00 | 95 | 1013.9 |
| 20260510114534 | 49 | 292 | 0.0 | 1.0 | 0.00 | 0.69 | 0.00 | 94 | 1014.0 |
| 20260510113042 | 49 | 0 | 0.0 | 3.0 | 0.00 | 0.69 | 0.00 | 94 | 1013.9 |
| 20260510111601 | 49 | 292 | 0.0 | 2.0 | 0.00 | 0.69 | 0.00 | 94 | 1013.8 |
| 20260510110041 | 49 | 292 | 0.0 | 1.0 | 0.00 | 0.69 | 0.00 | 94 | 1013.7 |
| 20260510104538 | 49 | 292 | 0.0 | 1.0 | 0.00 | 0.70 | 0.00 | 94 | 1013.7 |
| 20260510103035 | 49 | 292 | 1.0 | 3.0 | 0.00 | 0.70 | 0.00 | 94 | 1012.9 |
| 20260510101535 | 49 | 0 | 0.0 | 1.0 | 0.00 | 0.70 | 0.00 | 94 | 1013.4 |
| 20260510100041 | 49 | 0 | 0.0 | 0.0 | 0.00 | 0.70 | 0.00 | 94 | 1013.5 |
| 20260510094541 | 49 | 0 | 0.0 | 0.0 | 0.00 | 0.73 | 0.00 | 94 | 1013.4 |
| 20260510093058 | 49 | 292 | 0.0 | 1.0 | 0.00 | 0.73 | 0.00 | 94 | 1013.5 |
| 20260510091540 | 49 | 0 | 0.0 | 1.0 | 0.00 | 0.73 | 0.00 | 94 | 1013.6 |
| 20260510090049 | 49 | 0 | 0.0 | 0.0 | 0.00 | 0.73 | 0.00 | 94 | 1013.6 |
| 20260510084537 | 49 | 0 | 0.0 | 1.0 | 0.00 | 0.74 | 0.00 | 94 | 1013.4 |
| 20260510083048 | 49 | 0 | 0.0 | 1.0 | 0.00 | 0.74 | 0.00 | 94 | 1013.1 |
| 20260510081553 | 49 | 0 | 0.0 | 2.0 | 0.00 | 0.74 | 0.00 | 94 | 1013.0 |
| 20260510080046 | 49 | 0 | 0.0 | 1.0 | 0.00 | 0.74 | 0.00 | 94 | 1013.0 |
| 20260510074540 | 49 | 0 | 0.0 | 1.0 | 0.00 | 0.74 | 0.00 | 94 | 1013.0 |
| 20260510073045 | 49 | 292 | 0.0 | 1.0 | 0.00 | 0.74 | 0.00 | 94 | 1013.1 |
| 20260510071543 | 49 | 0 | 0.0 | 2.0 | 0.00 | 0.74 | 0.00 | 94 | 1013.2 |
| 20260510070043 | 49 | 0 | 0.0 | 1.0 | 0.00 | 0.74 | 0.00 | 94 | 1013.1 |
| 20260510064551 | 49 | 0 | 0.0 | 1.0 | 0.00 | 0.74 | 0.00 | 94 | 1013.0 |
| 20260510063041 | 49 | 0 | 0.0 | 1.0 | 0.00 | 0.74 | 0.00 | 94 | 1012.7 |
| 20260510061541 | 49 | 292 | 0.0 | 1.0 | 0.00 | 0.74 | 0.00 | 94 | 1012.7 |
| 20260510060035 | 49 | 292 | 0.0 | 0.0 | 0.00 | 0.74 | 0.00 | 94 | 1012.7 |
| 20260510054534 | 49 | 0 | 0.0 | 1.0 | 0.00 | 0.74 | 0.00 | 94 | 1012.8 |
| 20260510053034 | 49 | 292 | 0.0 | 1.0 | 0.00 | 0.74 | 0.00 | 94 | 1012.9 |
| 20260510051540 | 49 | 292 | 0.0 | 1.0 | 0.00 | 0.74 | 0.00 | 94 | 1013.1 |
| 20260510050042 | 49 | 0 | 0.0 | 1.0 | 0.00 | 0.74 | 0.00 | 94 | 1013.0 |
| 20260510044555 | 49 | 0 | 0.0 | 1.0 | 0.00 | 0.74 | 0.00 | 94 | 1012.9 |
| 20260510043036 | 49 | 0 | 0.0 | 1.0 | 0.00 | 0.74 | 0.00 | 94 | 1012.8 |
| 20260510041535 | 49 | 292 | 0.0 | 1.0 | 0.00 | 0.74 | 0.00 | 94 | 1012.9 |
| 20260510040035 | 49 | 0 | 0.0 | 1.0 | 0.00 | 0.74 | 0.00 | 94 | 1012.9 |
| 20260510034541 | 49 | 292 | 0.0 | 1.0 | 0.00 | 0.74 | 0.74 | 94 | 1012.7 |
| 20260510033042 | 49 | 292 | 0.0 | 2.0 | 0.00 | 0.74 | 0.74 | 94 | 1012.8 |
| 20260510031541 | 49 | 292 | 1.0 | 2.0 | 0.00 | 0.74 | 0.74 | 94 | 1012.8 |
| 20260510030040 | 49 | 292 | 0.0 | 1.0 | 0.00 | 0.74 | 0.74 | 94 | 1012.7 |
| 20260510024538 | 49 | 292 | 0.0 | 2.0 | 0.00 | 0.74 | 0.74 | 94 | 1012.7 |
| 20260510023043 | 50 | 292 | 0.0 | 2.0 | 0.00 | 0.74 | 0.74 | 94 | 1012.9 |
| 20260510021542 | 50 | 292 | 0.0 | 3.0 | 0.00 | 0.74 | 0.74 | 94 | 1012.9 |
| 20260510020039 | 50 | 0 | 0.0 | 1.0 | 0.00 | 0.74 | 0.74 | 94 | 1013.0 |
| 20260510014535 | 50 | 292 | 0.0 | 2.0 | 0.00 | 0.74 | 0.74 | 94 | 1013.1 |
| 20260510013035 | 51 | 292 | 1.0 | 2.0 | 0.00 | 0.74 | 0.74 | 94 | 1012.9 |
| 20260510011542 | 51 | 292 | 1.0 | 3.0 | 0.01 | 0.74 | 0.74 | 94 | 1012.8 |
| 20260510010041 | 51 | 0 | 1.0 | 5.0 | 0.02 | 0.74 | 0.74 | 93 | 1012.8 |
| 20260510004541 | 51 | 292 | 0.0 | 3.0 | 0.04 | 0.74 | 0.74 | 93 | 1012.5 |
| 20260510003042 | 51 | 0 | 0.0 | 2.0 | 0.06 | 0.74 | 0.74 | 93 | 1012.6 |
| 20260510001537 | 51 | 292 | 0.0 | 3.0 | 0.08 | 0.73 | 0.73 | 93 | 1012.8 |
| 20260510000037 | 51 | 292 | 0.0 | 2.0 | 0.13 | 0.72 | 0.72 | 93 | 1012.8 |
| 20260509234542 | 51 | 0 | 0.0 | 0.0 | 0.15 | 0.70 | 0.70 | 93 | 1012.9 |
| 20260509233041 | 51 | 0 | 0.0 | 0.0 | 0.17 | 0.68 | 0.68 | 93 | 1012.9 |
| 20260509231542 | 51 | 0 | 0.0 | 0.0 | 0.18 | 0.65 | 0.65 | 93 | 1013.0 |
| 20260509230044 | 51 | 0 | 0.0 | 1.0 | 0.14 | 0.58 | 0.58 | 93 | 1013.2 |